Location: Baia Mare
(47.6567°N, 23.5850°E)
Time: 13:16:29
(UTC+03:00)

ISS - Pass Details

Date: 17 May 2018
Orbit: 402 x 407 km, 51.6° (Epoch: 24 May)

Event Time Altitude Azimuth Distance (km) Brightness Sun altitude
Exits shadow 02:06:24 50° 19° (NNE) 524 -3.0 -22.3°
Drops below altitude 10° 02:09:11 10° 64° (ENE) 1,459 -0.5 -22.2°
Sets 02:11:18 0° 69° (ENE) 2,319 0.5 -22.2°
